User: anonymous   Login
Location: Unspecified
(0.0000°N, 0.0000°E)
Time: 02:41:07
(UTC+00:00)
Language:

Explorer 20 - Orbit

View from above orbital plane
View from above orbital plane
View from above satellite
View from above satellite

Ground track
Ground track

The orbit data is extracted from the following two-line orbital elements,

1   870U 64051A   18267.94913979 +.00000046 +00000-0 +28514-4 0  9990
2   870 079.8955 107.7297 0097885 135.6110 225.2946 13.91110649740979
Epoch (UTC): 24 September 2018 22:46:45
Eccentricity: 0.0097885
inclination: 79.8955°
perigee height: 853 km
apogee height: 996 km
right ascension of ascending node: 107.7297°
argument of perigee: 135.6110°
revolutions per day: 13.91110649
mean anomaly at epoch: 225.2946°
orbit number at epoch: 74097

The dashed part of the orbit path shows where the satellite is in the earth's shadow,  

DLR